Location: Newark
(48.1500°N, 2.9667°W)
Time: 06:46:48
(UTC+00:00)

Transit 2A - Pass Details

Date: 24 January 2020
Orbit: 600 x 959 km, 66.7° (Epoch: 17 February)

Event Time Altitude Azimuth Distance (km) Brightness Sun altitude
Rises 21:49:40 0° 250° (WSW) 2,868 - -47.5°
Reaches altitude 10° 21:52:15 10° 264° (W) 1,949 - -47.9°
Maximum altitude 21:55:50 25° 320° (NW) 1,243 - -48.4°
Drops below altitude 10° 21:59:28 10° 16° (NNE) 1,968 - -48.9°
Sets 22:02:06 0° 30° (NNE) 2,903 - -49.3°
